RA32681 UWLL-UWLL

Flight info

Callsign RA32681
Flight time 0h 11m
Altitude 5000
Route DOGIT DCT TERDI TERDI1B
Aircraft PA18/L-SDGRY/S

Departure

Time 2026-04-26 09:15
Airport Ulyanovsk Baratayevka Airport (UWLL)

Arrival

Time 2026-04-26 09:26
Airport Ulyanovsk Baratayevka Airport (UWLL)
Time Latitude Longitude Altitude Speed Heading
2026-04-26 09:12 54.27465 48.23852 404 ft 0 kts 299°
2026-04-26 09:14 54.27560 48.23650 523 ft 54 kts 298°
2026-04-26 09:15 54.27865 48.22977 1031 ft 74 kts 274°
2026-04-26 09:15 54.27865 48.22097 1638 ft 76 kts 254°
2026-04-26 09:15 54.27875 48.21229 1883 ft 78 kts 261°
2026-04-26 09:15 54.27876 48.20300 2085 ft 82 kts 260°
2026-04-26 09:16 54.27815 48.19307 2191 ft 84 kts 243°
2026-04-26 09:16 54.27426 48.18701 2349 ft 77 kts 198°
2026-04-26 09:16 54.26934 48.18692 2657 ft 65 kts 184°
2026-04-26 09:16 54.26488 48.18731 2910 ft 64 kts 190°
2026-04-26 09:17 54.26044 48.18687 3141 ft 65 kts 195°
2026-04-26 09:17 54.25744 48.18609 3288 ft 67 kts 197°
2026-04-26 09:17 54.25139 48.18407 3610 ft 68 kts 199°
2026-04-26 09:17 54.24642 48.18538 3800 ft 82 kts 159°
2026-04-26 09:18 54.24382 48.19163 3952 ft 97 kts 123°
2026-04-26 09:20 54.24340 48.19427 4018 ft 100 kts 112°
2026-04-26 09:20 54.24487 48.20596 4350 ft 110 kts 61°
2026-04-26 09:20 54.24637 48.20913 4433 ft 112 kts 46°
2026-04-26 09:23 54.25152 48.21537 4608 ft 118 kts 33°
2026-04-26 09:23 54.25814 48.22387 4846 ft 113 kts 37°
2026-04-26 09:24 54.26405 48.23380 4947 ft 129 kts 53°
2026-04-26 09:24 54.26819 48.24897 4742 ft 137 kts 85°
2026-04-26 09:24 54.26931 48.26332 4742 ft 137 kts 90°
2026-04-26 09:24 54.27038 48.27707 4830 ft 148 kts 89°
2026-04-26 09:25 54.27623 48.29362 4390 ft 182 kts 42°
2026-04-26 09:25 54.28690 48.30376 3666 ft 190 kts 29°
2026-04-26 09:25 54.29837 48.31623 1986 ft 201 kts 34°
2026-04-26 09:25 54.31011 48.32906 803 ft 183 kts 26°
2026-04-26 09:26 54.31879 48.34151 565 ft 158 kts 52°
2026-04-26 09:26 54.32759 48.35138 486 ft 153 kts 25°
2026-04-26 09:26 54.33081 48.35347 592 ft 140 kts 19°
2026-04-26 09:26 54.33379 48.35530 1611 ft 42 kts 23°
2026-04-26 09:28 54.33479 48.35664 1914 ft 55 kts 63°